OMA612 OMDB-OOMS

Flight info

Callsign OMA612
Flight time 0h 45m
Altitude 21000
Route ANVIX L223 TARDI DCT MUSUK T511 MCT
Aircraft B738/M-SDE2E3FGHIRWXY/LB1

Departure

Time 2026-04-25 18:57
Airport Dubai International Airport (OMDB)

Arrival

Time 2026-04-25 19:42
Airport Muscat International Airport (OOMS)
Time Latitude Longitude Altitude Speed Heading
2026-04-25 18:10 25.25867 55.34508 -3 ft 0 kts 211°
2026-04-25 18:40 25.25876 55.34513 29 ft 2 kts 208°
2026-04-25 18:40 25.25890 55.34523 24 ft 2 kts 211°
2026-04-25 18:41 25.25904 55.34532 28 ft 2 kts 210°
2026-04-25 18:41 25.25918 55.34541 29 ft 2 kts 205°
2026-04-25 18:41 25.25934 55.34547 30 ft 2 kts 189°
2026-04-25 18:41 25.25951 55.34548 29 ft 2 kts 164°
2026-04-25 18:42 25.25964 55.34538 28 ft 2 kts 117°
2026-04-25 18:42 25.25966 55.34532 27 ft 2 kts 117°
2026-04-25 18:42 25.25973 55.34518 29 ft 0 kts 118°
2026-04-25 18:46 25.25972 55.34519 29 ft 1 kts 118°
2026-04-25 18:46 25.25957 55.34550 28 ft 7 kts 120°
2026-04-25 18:46 25.25929 55.34601 25 ft 8 kts 121°
2026-04-25 18:47 25.25900 55.34651 25 ft 9 kts 122°
2026-04-25 18:47 25.25864 55.34713 24 ft 10 kts 122°
2026-04-25 18:47 25.25827 55.34778 22 ft 10 kts 122°
2026-04-25 18:47 25.25792 55.34842 23 ft 10 kts 121°
2026-04-25 18:48 25.25747 55.34922 21 ft 15 kts 121°
2026-04-25 18:48 25.25689 55.35032 19 ft 17 kts 120°
2026-04-25 18:48 25.25656 55.35094 18 ft 4 kts 116°
2026-04-25 18:48 25.25679 55.35160 17 ft 13 kts 37°
2026-04-25 18:49 25.25732 55.35196 16 ft 15 kts 31°
2026-04-25 18:49 25.25827 55.35258 14 ft 16 kts 31°
2026-04-25 18:49 25.25917 55.35318 17 ft 15 kts 31°
2026-04-25 18:49 25.25982 55.35402 17 ft 14 kts 69°
2026-04-25 18:50 25.25988 55.35513 17 ft 15 kts 103°
2026-04-25 18:50 25.25915 55.35664 16 ft 19 kts 122°
2026-04-25 18:50 25.25867 55.35749 16 ft 20 kts 121°
2026-04-25 18:50 25.25793 55.35882 18 ft 20 kts 121°
2026-04-25 18:51 25.25724 55.36008 17 ft 19 kts 122°
2026-04-25 18:51 25.25677 55.36091 21 ft 19 kts 121°
2026-04-25 18:51 25.25590 55.36249 22 ft 18 kts 121°
2026-04-25 18:51 25.25520 55.36374 22 ft 19 kts 121°
2026-04-25 18:52 25.25451 55.36499 22 ft 19 kts 121°
2026-04-25 18:52 25.25381 55.36625 20 ft 20 kts 122°
2026-04-25 18:52 25.25309 55.36755 23 ft 20 kts 121°
2026-04-25 18:52 25.25240 55.36882 25 ft 19 kts 120°
2026-04-25 18:53 25.25173 55.37004 28 ft 18 kts 122°
2026-04-25 18:53 25.25107 55.37121 33 ft 18 kts 121°
2026-04-25 18:53 25.25044 55.37235 33 ft 17 kts 121°
2026-04-25 18:53 25.24984 55.37345 36 ft 16 kts 122°
2026-04-25 18:54 25.24855 55.37576 36 ft 20 kts 121°
2026-04-25 18:54 25.24780 55.37710 38 ft 21 kts 121°
2026-04-25 18:54 25.24703 55.37850 36 ft 22 kts 121°
2026-04-25 18:55 25.24685 55.37961 38 ft 14 kts 48°
2026-04-25 18:55 25.24770 55.38009 39 ft 14 kts
2026-04-25 18:55 25.24836 55.37967 39 ft 10 kts 295°
2026-04-25 18:55 25.24845 55.37949 39 ft 0 kts 300°
2026-04-25 18:56 25.24897 55.37857 39 ft 51 kts 302°
2026-04-25 18:56 25.25254 55.37218 38 ft 141 kts 302°
2026-04-25 18:57 25.25881 55.36090 305 ft 196 kts 303°
2026-04-25 18:57 25.26617 55.34783 1338 ft 193 kts 302°
2026-04-25 18:57 25.27356 55.33446 2084 ft 213 kts 302°
2026-04-25 18:57 25.27878 55.32503 2455 ft 221 kts 302°
2026-04-25 18:58 25.28929 55.30520 3235 ft 230 kts 293°
2026-04-25 18:58 25.28608 55.27031 3953 ft 238 kts 248°
2026-04-25 18:58 25.27891 55.25371 3965 ft 240 kts 246°
2026-04-25 18:59 25.26430 55.22046 3944 ft 241 kts 246°
2026-04-25 18:59 25.24973 55.18679 3966 ft 244 kts 244°
2026-04-25 19:00 25.22203 55.16719 4105 ft 261 kts 184°
2026-04-25 19:00 25.20388 55.16747 4459 ft 265 kts 174°
2026-04-25 19:01 25.17508 55.19035 4530 ft 265 kts 118°
2026-04-25 19:01 25.16655 55.20826 5071 ft 268 kts 116°
2026-04-25 19:01 25.15804 55.22659 5671 ft 270 kts 116°
2026-04-25 19:01 25.14936 55.24500 5946 ft 270 kts 116°
2026-04-25 19:02 25.13198 55.28137 5986 ft 267 kts 116°
2026-04-25 19:02 25.12320 55.29966 6368 ft 273 kts 116°
2026-04-25 19:02 25.11433 55.31810 7101 ft 273 kts 117°
2026-04-25 19:03 25.10030 55.34890 7466 ft 269 kts 114°
2026-04-25 19:03 25.08998 55.37436 7805 ft 275 kts 114°
2026-04-25 19:03 25.08218 55.39355 8575 ft 277 kts 115°
2026-04-25 19:04 25.06646 55.43256 8968 ft 279 kts 114°
2026-04-25 19:04 25.05893 55.45223 8989 ft 280 kts 114°
2026-04-25 19:05 25.04309 55.49365 9005 ft 300 kts 114°
2026-04-25 19:05 25.02696 55.53554 9016 ft 298 kts 114°
2026-04-25 19:05 25.01862 55.55674 9476 ft 303 kts 117°
2026-04-25 19:06 25.00847 55.57717 9930 ft 305 kts 122°
2026-04-25 19:06 24.98627 55.61688 9994 ft 301 kts 123°
2026-04-25 19:06 24.97539 55.63653 10002 ft 300 kts 123°
2026-04-25 19:07 24.95332 55.67708 10006 ft 306 kts 122°
2026-04-25 19:07 24.94251 55.69704 9999 ft 299 kts 123°
2026-04-25 19:08 24.91897 55.73399 10022 ft 298 kts 129°
2026-04-25 19:08 24.90653 55.75232 10027 ft 299 kts 129°
2026-04-25 19:09 24.86925 55.80797 10021 ft 302 kts 128°
2026-04-25 19:09 24.86103 55.82035 10023 ft 302 kts 128°
2026-04-25 19:09 24.83061 55.86598 10333 ft 340 kts 128°
2026-04-25 19:10 24.81627 55.88721 10854 ft 350 kts 128°
2026-04-25 19:10 24.80163 55.90888 11580 ft 353 kts 128°
2026-04-25 19:10 24.78710 55.93039 12346 ft 355 kts 128°
2026-04-25 19:10 24.77111 55.95126 13104 ft 357 kts 136°
2026-04-25 19:11 24.75289 55.96995 13826 ft 360 kts 139°
2026-04-25 19:11 24.73401 55.98833 14469 ft 364 kts 140°
2026-04-25 19:11 24.71510 56.00717 15080 ft 369 kts 139°
2026-04-25 19:11 24.69618 56.02645 15680 ft 374 kts 139°
2026-04-25 19:12 24.67669 56.04649 15831 ft 392 kts 138°
2026-04-25 19:12 24.65630 56.06741 15957 ft 409 kts 138°
2026-04-25 19:12 24.63521 56.08900 16269 ft 417 kts 138°
2026-04-25 19:12 24.61388 56.11083 16750 ft 420 kts 139°
2026-04-25 19:13 24.59242 56.13282 17271 ft 422 kts 139°
2026-04-25 19:13 24.57140 56.15494 17748 ft 426 kts 135°
2026-04-25 19:13 24.55226 56.18004 18220 ft 431 kts 129°
2026-04-25 19:13 24.53406 56.20633 18613 ft 434 kts 128°
2026-04-25 19:14 24.51590 56.23303 18995 ft 437 kts 128°
2026-04-25 19:14 24.50975 56.24208 19115 ft 439 kts 128°
2026-04-25 19:14 24.47911 56.28697 19718 ft 444 kts 128°
2026-04-25 19:14 24.46039 56.31415 20069 ft 447 kts 129°
2026-04-25 19:15 24.44151 56.34139 20411 ft 450 kts 129°
2026-04-25 19:15 24.42246 56.36878 20776 ft 453 kts 129°
2026-04-25 19:15 24.40327 56.39629 20908 ft 455 kts 129°
2026-04-25 19:15 24.38385 56.42410 20908 ft 461 kts 129°
2026-04-25 19:16 24.36419 56.45221 20913 ft 465 kts 129°
2026-04-25 19:16 24.34458 56.48028 20894 ft 463 kts 129°
2026-04-25 19:16 24.32503 56.50823 20892 ft 462 kts 129°
2026-04-25 19:16 24.30573 56.53582 20891 ft 461 kts 129°
2026-04-25 19:17 24.28619 56.56374 20895 ft 461 kts 129°
2026-04-25 19:17 24.26664 56.59165 20893 ft 461 kts 129°
2026-04-25 19:17 24.24708 56.61955 20894 ft 461 kts 129°
2026-04-25 19:17 24.22754 56.64742 20899 ft 461 kts 129°
2026-04-25 19:18 24.20794 56.67535 20905 ft 461 kts 129°
2026-04-25 19:18 24.18838 56.70321 20909 ft 461 kts 129°
2026-04-25 19:18 24.16882 56.73106 20915 ft 462 kts 129°
2026-04-25 19:18 24.14921 56.75896 20918 ft 462 kts 129°
2026-04-25 19:19 24.12987 56.78645 20922 ft 461 kts 129°
2026-04-25 19:19 24.11026 56.81432 20925 ft 461 kts 129°
2026-04-25 19:19 24.09063 56.84222 20934 ft 461 kts 129°
2026-04-25 19:19 24.07766 56.86063 20931 ft 461 kts 129°
2026-04-25 19:20 24.05140 56.89789 20931 ft 460 kts 129°
2026-04-25 19:20 24.03186 56.92560 20929 ft 460 kts 129°
2026-04-25 19:20 24.01252 56.95301 20927 ft 460 kts 129°
2026-04-25 19:20 23.99292 56.98076 20927 ft 460 kts 129°
2026-04-25 19:21 23.97335 57.00847 20930 ft 460 kts 129°
2026-04-25 19:21 23.93425 57.06377 20925 ft 459 kts 129°
2026-04-25 19:21 23.91471 57.09139 20927 ft 459 kts 129°
2026-04-25 19:22 23.89518 57.11899 20926 ft 459 kts 129°
2026-04-25 19:22 23.87567 57.14653 20926 ft 458 kts 129°
2026-04-25 19:22 23.83656 57.20170 20926 ft 458 kts 129°
2026-04-25 19:23 23.81705 57.22920 20926 ft 458 kts 129°
2026-04-25 19:23 23.77829 57.28381 20926 ft 457 kts 129°
2026-04-25 19:23 23.75877 57.31128 20925 ft 457 kts 129°
2026-04-25 19:24 23.74013 57.33936 20921 ft 458 kts 122°
2026-04-25 19:24 23.72577 57.37015 20908 ft 447 kts 113°
2026-04-25 19:24 23.71077 57.43335 20584 ft 419 kts 99°
2026-04-25 19:25 23.70235 57.49553 19387 ft 415 kts 99°
2026-04-25 19:25 23.69812 57.52675 18770 ft 414 kts 99°
2026-04-25 19:25 23.69383 57.55771 18240 ft 411 kts 99°
2026-04-25 19:26 23.68948 57.58854 17688 ft 407 kts 99°
2026-04-25 19:26 23.68519 57.61850 17168 ft 402 kts 99°
2026-04-25 19:26 23.68087 57.64845 16659 ft 397 kts 99°
2026-04-25 19:26 23.67658 57.67806 16133 ft 393 kts 99°
2026-04-25 19:27 23.67232 57.70739 15638 ft 389 kts 99°
2026-04-25 19:27 23.67089 57.71725 15468 ft 388 kts 99°
2026-04-25 19:27 23.66392 57.76507 14663 ft 381 kts 99°
2026-04-25 19:27 23.65977 57.79349 14181 ft 377 kts 99°
2026-04-25 19:28 23.65567 57.82162 13715 ft 373 kts 99°
2026-04-25 19:28 23.65160 57.84940 13174 ft 370 kts 99°
2026-04-25 19:28 23.64755 57.87710 12586 ft 369 kts 99°
2026-04-25 19:28 23.64350 57.90472 11986 ft 369 kts 99°
2026-04-25 19:29 23.63946 57.93228 11429 ft 367 kts 99°
2026-04-25 19:29 23.63545 57.95954 11116 ft 355 kts 99°
2026-04-25 19:29 23.63170 57.98505 10999 ft 335 kts 99°
2026-04-25 19:29 23.62810 58.00947 10882 ft 317 kts 99°
2026-04-25 19:30 23.62621 58.03285 10691 ft 303 kts 88°
2026-04-25 19:30 23.62737 58.05567 10250 ft 301 kts 85°
2026-04-25 19:30 23.62899 58.07846 9759 ft 302 kts 85°
2026-04-25 19:30 23.63067 58.10124 9278 ft 300 kts 85°
2026-04-25 19:31 23.63233 58.12384 8819 ft 298 kts 84°
2026-04-25 19:31 23.63400 58.14640 8426 ft 298 kts 84°
2026-04-25 19:31 23.63567 58.16888 8214 ft 293 kts 84°
2026-04-25 19:31 23.63729 58.19064 8153 ft 282 kts 84°
2026-04-25 19:32 23.63881 58.21135 8080 ft 272 kts 84°
2026-04-25 19:32 23.64030 58.23159 8011 ft 263 kts 84°
2026-04-25 19:32 23.64171 58.25109 7935 ft 252 kts 84°
2026-04-25 19:32 23.64217 58.25748 7904 ft 247 kts 84°
2026-04-25 19:33 23.64429 58.28731 7752 ft 227 kts 84°
2026-04-25 19:33 23.64544 58.30393 7657 ft 213 kts 84°
2026-04-25 19:33 23.64653 58.31995 7383 ft 211 kts 84°
2026-04-25 19:33 23.64762 58.33585 7080 ft 210 kts 84°
2026-04-25 19:34 23.64869 58.35167 6754 ft 209 kts 84°
2026-04-25 19:34 23.64974 58.36750 6385 ft 210 kts 84°
2026-04-25 19:34 23.65079 58.38330 6036 ft 208 kts 84°
2026-04-25 19:34 23.65183 58.39905 5689 ft 207 kts 84°
2026-04-25 19:35 23.65285 58.41469 5339 ft 207 kts 84°
2026-04-25 19:35 23.65383 58.42987 5222 ft 193 kts 84°
2026-04-25 19:35 23.65472 58.44400 5103 ft 181 kts 85°
2026-04-25 19:35 23.65556 58.45736 4915 ft 174 kts 84°
2026-04-25 19:36 23.65612 58.46605 4747 ft 173 kts 84°
2026-04-25 19:36 23.65722 58.48332 4375 ft 172 kts 85°
2026-04-25 19:36 23.65598 58.49618 4041 ft 173 kts 117°
2026-04-25 19:36 23.64747 58.50483 3733 ft 169 kts 163°
2026-04-25 19:37 23.63984 58.50564 3529 ft 166 kts 194°
2026-04-25 19:37 23.63038 58.49934 3500 ft 161 kts 234°
2026-04-25 19:37 23.62671 58.48393 3393 ft 166 kts 264°
2026-04-25 19:37 23.62567 58.47541 3277 ft 166 kts 263°
2026-04-25 19:38 23.62365 58.45898 2979 ft 162 kts 263°
2026-04-25 19:38 23.62269 58.45083 2823 ft 158 kts 263°
2026-04-25 19:38 23.62135 58.43917 2662 ft 152 kts 263°
2026-04-25 19:38 23.62002 58.42742 2418 ft 158 kts 263°
2026-04-25 19:39 23.61875 58.41620 2211 ft 146 kts 263°
2026-04-25 19:39 23.61776 58.40563 2023 ft 135 kts 265°
2026-04-25 19:39 23.61694 58.39545 1867 ft 136 kts 265°
2026-04-25 19:39 23.61611 58.38515 1692 ft 137 kts 265°
2026-04-25 19:40 23.61529 58.37482 1498 ft 136 kts 265°
2026-04-25 19:40 23.61447 58.36464 1335 ft 134 kts 265°
2026-04-25 19:40 23.61366 58.35448 1150 ft 135 kts 265°
2026-04-25 19:40 23.61284 58.34425 977 ft 136 kts 265°
2026-04-25 19:41 23.61200 58.33389 774 ft 137 kts 265°
2026-04-25 19:41 23.61116 58.32365 626 ft 136 kts 266°
2026-04-25 19:41 23.61033 58.31331 422 ft 137 kts 265°
2026-04-25 19:41 23.60980 58.30643 272 ft 136 kts 265°
2026-04-25 19:42 23.60872 58.29291 47 ft 136 kts 265°
2026-04-25 19:42 23.60794 58.28335 35 ft 112 kts 264°
2026-04-25 19:42 23.60739 58.27619 32 ft 78 kts 265°
2026-04-25 19:42 23.60693 58.27166 35 ft 37 kts 256°
2026-04-25 19:43 23.60604 58.26968 35 ft 26 kts 237°
2026-04-25 19:43 23.60533 58.26859 34 ft 12 kts 234°
2026-04-25 19:43 23.60486 58.26791 34 ft 11 kts 221°
2026-04-25 19:43 23.60421 58.26805 32 ft 11 kts 122°
2026-04-25 19:44 23.60418 58.26886 32 ft 11 kts 84°
2026-04-25 19:44 23.60425 58.26973 33 ft 13 kts 85°
2026-04-25 19:44 23.60434 58.27081 33 ft 16 kts 85°
2026-04-25 19:44 23.60446 58.27219 32 ft 20 kts 85°
2026-04-25 19:45 23.60459 58.27388 33 ft 24 kts 85°
2026-04-25 19:45 23.60473 58.27565 33 ft 17 kts 85°
2026-04-25 19:45 23.60421 58.27662 33 ft 15 kts 131°
2026-04-25 19:45 23.60343 58.27762 33 ft 20 kts 130°
2026-04-25 19:46 23.60249 58.27882 33 ft 20 kts 130°
2026-04-25 19:46 23.60239 58.28024 33 ft 19 kts 85°
2026-04-25 19:46 23.60251 58.28164 33 ft 18 kts 85°
2026-04-25 19:46 23.60262 58.28300 33 ft 18 kts 85°
2026-04-25 19:47 23.60272 58.28431 33 ft 17 kts 85°
2026-04-25 19:47 23.60281 58.28543 33 ft 11 kts 84°
2026-04-25 19:47 23.60284 58.28580 33 ft 0 kts 85°
2026-04-25 19:47 23.60284 58.28583 33 ft 0 kts 85°